#timestamp,LO_Frequency,Hit,StdDev 
1602566695.7,286047007.9,P
1602566715.5,286047008.8,P
1602566735.3,286047006.9,P
1602566755.2,286047007.3,Y
1602566775.9,286046999.6,P
1602566795.7,286046998.9,N
1602566815.6,286046999.3,N
1602566835.4,286046998.7,N
1602566855.3,286046998.7,N
1602566875.1,286046998.2,N
1602566876.0,286046998.2,N
1602566895.8,286047000.2,N
1602566915.7,286046998.3,N
1602566935.5,286046996.7,N
1602566985.4,286046999.2,E
1602566995.3,286046998.8,N
1602567015.1,286047000.9,P
1602567035.9,286046998.9,N
1602567055.7,286046998.3,N
1602567075.5,286046998.2,N
1602567095.4,286047000.4,N
1602567115.2,286047000.3,N
1602567135.1,286047001.1,N
1602567136.0,286047001.1,N
1602567155.8,286047002.4,N
1602567175.6,286047002.2,N
1602567195.5,286047002.1,N
1602567215.3,286047001.5,N
1602567235.1,286046999.8,N
1602567255.9,286046998.1,N
1602567275.7,286047002.4,N
1602567295.6,286047004.4,N
1602567315.4,286047004.0,N
1602567335.2,286047002.4,N
1602567355.1,286047001.7,N
1602567356.0,286047001.7,N
1602567375.8,286047004.3,N
1602567395.6,286047003.5,N
1602567415.5,286047002.2,N
1602567435.3,286047004.3,N
1602567455.2,286047004.4,N
1602567475.9,286047001.4,N
1602567495.7,286047001.9,N
1602567515.6,286047001.9,N
1602567535.4,286047001.8,N
1602567555.2,286047004.7,N
1602567575.1,286047005.3,N
1602567576.0,286047005.3,N
1602567595.8,286047007.2,Y
1602567615.7,286047004.6,P
1602567635.5,286047007.3,P
1602567655.3,286047004.6,N
1602567675.2,286047008.6,Y
1602567695.0,286047004.1,P
1602567695.9,286047004.1,P
1602567715.8,286047003.8,P
1602567735.6,286047007.3,Y
1602567755.4,286047004.1,P
1602567775.3,286047003.3,P
1602567795.1,286047005.9,P
1602567815.9,286047007.1,Y
1602567835.7,286047002.2,P
1602567855.5,286047000.5,N
1602567875.4,286047000.5,N
1602567895.2,286047000.5,N
1602567915.0,286047000.5,N
1602567915.9,286047000.5,N
1602567935.8,286047000.9,N
1602567955.6,286046998.5,N
1602567975.5,286046999.0,N
1602567995.3,286046996.6,N
1602568015.1,286046999.3,N
1602568035.9,286047000.2,N
1602568055.7,286047004.1,N
1602568075.5,286047002.0,N
1602568095.4,286047001.4,N
1602568115.2,286047005.6,N
1602568135.1,286047002.5,N
1602568136.0,286047002.5,N
1602568155.8,286047002.5,N
1602568175.6,286047003.6,N
1602568195.5,286047001.5,N
1602568215.3,286047002.0,N
1602568235.1,286047002.9,N
1602568255.9,286047003.7,N
1602568275.7,286047005.6,N
1602568295.6,286047005.7,N
1602568315.4,286047003.7,N
1602568335.2,286047001.5,N
1602568355.1,286047003.8,N
1602568356.0,286047003.8,N
1602568375.8,286047006.5,Y
1602568395.6,286047010.1,P
1602568415.5,286047008.1,N
1602568435.3,286047008.3,N
1602568455.2,286047007.3,N
1602568475.9,286047003.5,N
1602568495.7,286047003.0,N
1602568515.6,286047004.4,N
1602568535.4,286047001.8,N
1602568555.3,286047003.5,N
1602568575.1,286047003.9,N
1602568576.0,286047003.9,N
1602568595.8,286047004.1,N
1602568615.7,286047003.6,N
1602568635.5,286047005.8,N
1602568655.3,286047005.3,N
1602568675.2,286047005.4,N
1602568695.0,286047006.8,Y
1602568695.9,286047006.8,P
1602568715.8,286047004.1,P
1602568735.6,286047004.4,P
1602568755.4,286047003.4,Y
1602568775.3,286046998.8,P
1602568795.1,286046998.5,N
